Regional Weather Roundup
Issued by NWS

Home | Current Version | Previous Version | Text Only | Print | Product List | Glossary Off
Versions: 1 2 3 4 5 6 7 8 9 10 11 12 13 14 15 16 17 18 19 20 21 22 23 24 25 26 27 28 29 30 31 32 33 34 35 36 37 38 39 40 41 42 43 44 45 46 47 48 49 50

000
ASUS43 KLOT 230607
RWRIL

ILLINOIS REGIONAL WEATHER ROUNDUP
NATIONAL WEATHER SERVICE CHICAGO/ROMEOVILLE IL
100 AM CDT THU MAR 23 2017

NOTE: "FAIR" INDICATES FEW OR NO CLOUDS BELOW 12,000 FEET WITH NO
SIGNIFICANT WEATHER AND/OR OBSTRUCTIONS TO VISIBILITY.

* THESE STATIONS ARE NOT UNDER NWS QUALITY CONTROL. THEY ALSO MAY NOT
  REPORT WEATHER SUCH AS PRECIPITATION OR FOG.

ILZ001-002-007-009-015-016-024-230700-
NORTHWEST ILLINOIS

CITY           SKY/WX    TMP DP  RH WIND       PRES   REMARKS
MOLINE         PTCLDY    35  21  56 E12       30.38F WCI  27
6HR MIN TEMP:  35; 6HR MAX TEMP:  41;

STERLING*      CLOUDY    32  22  66 E12       30.43S WCI  23
SAVANNA*       CLOUDY    34  19  53 SE10G16   30.41S WCI  26
$$

ILZ003-004-008-010-011-017-018-230700-
NORTH CENTRAL ILLINOIS

CITY           SKY/WX    TMP DP  RH WIND       PRES   REMARKS
ROCKFORD       CLOUDY    29  18  63 E8        30.46S WCI  21
6HR MIN TEMP:  29; 6HR MAX TEMP:  39;

FREEPORT*      CLOUDY    29  19  68 SE9       30.45R WCI  20
ROCHELLE*      CLOUDY    30  20  66 E9        30.44S WCI  22
DE KALB*       CLOUDY    29  20  71 E10       30.43F WCI  19
PERU*          PTCLDY    30  21  69 E9        30.43F WCI  22
$$

ILZ005-006-012>014-019>023-230700-
NORTHEAST ILLINOIS

CITY           SKY/WX    TMP DP  RH WIND       PRES   REMARKS
CHICAGO-OHARE  PTCLDY    31  22  69 E7        30.45F WCI  24
6HR MIN TEMP:  28; 6HR MAX TEMP:  31;

CHICAGO-MIDWAY PTCLDY    32  25  75 E6        30.46F WCI  26
6HR MIN TEMP:  31; 6HR MAX TEMP:  32;

AURORA         CLOUDY    31  22  69 E10       30.44F WCI  22
6HR MIN TEMP:  27; 6HR MAX TEMP:  36;

LANSING*       CLEAR     28  23  81 E3        30.48S
JOLIET*        CLOUDY    32  24  71 E9        30.44F WCI  24
WAUKEGAN       CLEAR     21  18  88 E5        30.46F WCI  15
6HR MIN TEMP:  20; 6HR MAX TEMP:  27;

DUPAGE AIRPORT CLOUDY    29  22  75 E7        30.43F WCI  22
6HR MIN TEMP:  25; 6HR MAX TEMP:  32;

KANKAKEE*      CLOUDY    27  23  84 CALM      30.45F
WHEELING       CLEAR     25  21  85 CALM      30.47F
6HR MIN TEMP:  25; 6HR MAX TEMP:  28;

MORRIS*        CLOUDY    30  22  73 E7        30.43F WCI  23
ROMEOVILLE*    CLOUDY    31  26  81 E10       30.44F WCI  22
NORTHERLY ISL    N/A     33  25  72 E12         N/A  WCI  24
$$

LMZ740>746-230700-
SOUTHERN LAKE MICHIGAN

STATION/POSITION SKY/WX   TEMP    WIND        PRES    VSBY  WAVE
                          AIR SEA DIR/SP/G                  HT/PER
                          (F)     (DEG/KT/KT) (MB)    (MI)  (FT/S)
HARRISON CRIB              34     120/ 11/ 12   N/A
BURNHAM HARBOR             33     120/ 11       N/A
CALUMET HARBOR                    110/  9/ 10 1031.2F
BURNS HARBOR               30     100/  5/  7 1032.5S
MICHIGAN CITY              29      70/  4/  5   N/A
$$

ILZ025>027-034>036-040-047-049-050-058-095>099-230700-
WEST-CENTRAL ILLINOIS

CITY           SKY/WX    TMP DP  RH WIND       PRES   REMARKS
QUINCY         CLOUDY    39  17  41 SE14      30.31F WCI  31
GALESBURG*     CLOUDY    35  23  62 E13G18      N/A  WCI  26
MACOMB*        CLOUDY    37  22  55 SE15G22   30.37F WCI  28
JACKSONVILLE*  CLOUDY    36  21  54 E12       30.36S WCI  27
PITTSFIELD*    CLOUDY    38  19  46 E8        30.34F WCI  33
$$

ILZ028>032-037-038-041>044-048-051>054-059>061-230700-
CENTRAL ILLINOIS

CITY           SKY/WX    TMP DP  RH WIND       PRES   REMARKS
PONTIAC        PTCLDY    31  25  80 E9        30.43F WCI  23
BLOOMINGTON    PTCLDY    31  22  69 SE14      30.40F WCI  21
DECATUR        CLOUDY    31  21  66 E8        30.40F WCI  23
PEORIA         PTCLDY    35  21  56 E13       30.41S WCI  26
6HR MIN TEMP:  34; 6HR MAX TEMP:  40;

LACON*         CLEAR     30  25  80 E7        30.41F WCI  23
LINCOLN*       CLOUDY    35  24  63 E8        30.40S WCI  28
SPRINGFIELD    MOCLDY    37  21  52 E10       30.38F WCI  30
6HR MIN TEMP:  37; 6HR MAX TEMP:  44; 6HR PCP: TRACE;

TAYLORVILLE    PTCLDY    35  21  57 E10       30.37F WCI  27
6HR MIN TEMP:  35; 6HR MAX TEMP:  43;

$$

ILZ033-039-045-046-055>057-062-063-230700-
EAST-CENTRAL ILLINOIS

CITY           SKY/WX    TMP DP  RH WIND       PRES   REMARKS
CHAMPAIGN      CLEAR     31  21  66 E10       30.41F WCI  22
RANTOUL*       CLEAR     32  26  77 E7        30.43S WCI  26
MATTOON        CLEAR     33  21  61 E7        30.40S WCI  27
PARIS*         CLEAR     31  24  74 E6        30.44S WCI  25
$$

ILZ079-100>102-230700-
SOUTHWEST ILLINOIS

CITY           SKY/WX    TMP DP  RH WIND       PRES   REMARKS
ALTON          CLOUDY    38  20  48 E7        30.35F WCI  33
BELLEVILLE     CLOUDY    38  23  53 E7        30.34F WCI  33
CAHOKIA*       CLOUDY    42  18  37 E8        30.34F
SPARTA*        PTCLDY    39  22  49 E8        30.36F WCI  34
$$

ILZ064>066-069>071-074>076-080>082-084>086-088>090-092>094-230700-
SOUTH-CENTRAL ILLINOIS

CITY           SKY/WX    TMP DP  RH WIND       PRES   REMARKS
CARBONDALE     CLOUDY    39  23  52 E7        30.36F WCI  34
6HR MIN TEMP:  39; 6HR MAX TEMP:  47;

CAIRO*         CLEAR     43  26  50 NE9       30.33F
EFFINGHAM*     CLOUDY    36  24  62 NE5       30.42F WCI  32
MARION         CLEAR     41  21  45 E6        30.37F
MT. VERNON     CLEAR     37  22  54 NE7       30.38F WCI  32
CENTRALIA*     CLEAR     39  23  53 E7        30.36F WCI  34
SALEM*         CLEAR     39  21  48 E6        30.37F WCI  35
METROPOLIS*    CLOUDY    40  24  52 NE3       30.36F
$$

ILZ067-068-072-073-078-083-087-091-230700-
SOUTHEAST ILLINOIS

CITY           SKY/WX    TMP DP  RH WIND       PRES   REMARKS
LAWRENCEVILLE  CLEAR     35  20  54 E8        30.41F WCI  29
FLORA*         CLEAR     38  22  54 E5        30.40F WCI  34
FAIRFIELD*     CLEAR     37  23  56 NE3       30.39F
HARRISBURG*    CLEAR     38  24  57 E6        30.38F WCI  34
ROBINSON*      CLEAR     32  21  63 E6        30.43S WCI  27
CARMI*         CLEAR     35  24  62 NE3       30.39S
$$

ABBREVIATIONS USED IN REMARKS
   TC - TEMPERATURE IN CELSIUS
  WCI - WIND CHILL INDEX
   HX - HEAT INDEX
  VSB - VISIBILITY
$$




USA.gov is the U.S. government's official web portal to all federal, state and local government web resources and services.